Location: Sternwarte ZA, Rosenfeld-Brittheim
(48.2889°N, 8.6789°E)
Time: 15:16:15
(UTC+02:00)

ISS - Pass Details

Date: 14 October 2017
Orbit: 401 x 408 km, 51.6° (Epoch: 18 October)

Event Time Altitude Azimuth Distance (km) Brightness Sun altitude
Rises 19:13:07 0° 291° (WNW) 2,325 1.3 -6.6°
Reaches altitude 10° 19:15:15 10° 285° (WNW) 1,464 0.4 -6.9°
Maximum altitude 19:18:24 46° 211° (SSW) 555 -2.8 -7.5°
Drops below altitude 10° 19:21:33 10° 137° (SE) 1,460 -1.4 -8.0°
Enters shadow 19:22:54 - 133° (SE) 2,003 -0.7 -8.2°
